Location: ASU Dark Sky Observatory
(36.2504°N, 81.4125°W)
Time: 16:41:09
(UTC-04:00)

Amateur Radio Satellites - All Passes

Search period start: 26 May 2017 16:11
Search period end: 27 May 2017 16:11
Location: ASU Dark Sky Observatory, 36.2504°N, 81.4125°W

Satellite Date Start Highest point End Downlink Frequencies (MHz)
Time Altitude Azimuth
BEESAT 26 May 16:16:26 16:21:10 60° 101° (E) 16:25:54 436.000
CUBESAT XI-V 26 May 16:48:27 16:49:56 11° 91° (E) 16:51:25 437.345
KKS-1 26 May 16:57:27 16:58:40 11° 92° (E) 16:59:52 437.445
BEESAT 2 26 May 17:07:06 17:09:51 18° 250° (WSW) 17:12:36 435.950
NO-84 26 May 17:12:52 17:16:29 79° 228° (SW) 17:19:46 435.350 FM
ITUPSAT 1 26 May 17:20:57 17:25:04 29° 291° (WNW) 17:29:12 437.325
ITAMSAT 1 26 May 17:25:05 17:28:01 15° 267° (W) 17:30:58 435.822/435.867
MOZHAYETS 4 26 May 17:37:46 17:41:51 31° 289° (WNW) 17:45:55
CUTE-I 26 May 17:39:57 17:42:52 15° 63° (ENE) 17:45:46 437.470
XW-2F 26 May 17:45:09 17:46:12 11° 66° (ENE) 17:47:14 145.980 - 146.000
XW-2C 26 May 17:45:42 17:47:08 12° 67° (ENE) 17:48:35 145.795 - 145.815
KAITUO 1B 26 May 17:52:51 17:53:55 11° 66° (ENE) 17:54:58 145.475/437.950
BEESAT 26 May 17:56:09 17:58:24 13° 296° (WNW) 18:00:38 436.000
DOVE 4 26 May 17:56:44 18:01:01 37° 73° (ENE) 18:05:05 437.250
AO-7 26 May 18:05:12 18:09:44 16° 268° (W) 18:14:18 .
LilacSat-2 26 May 18:21:25 18:24:55 35° 73° (ENE) 18:28:27 437.200
CUBESAT XI-V 26 May 18:23:04 18:27:38 59° 286° (WNW) 18:32:10 437.345
KKS-1 26 May 18:31:10 18:35:31 57° 286° (WNW) 18:39:51 437.445
XW-2D 26 May 18:55:28 18:59:16 80° 259° (WSW) 19:03:06 145.860 - 145.880
STARS 26 May 19:02:12 19:06:33 61° 285° (WNW) 19:10:52 437.465
XW-2B 26 May 19:03:27 19:07:13 65° 259° (W) 19:11:02 145.730 - 145.750
SEEDS 26 May 19:10:24 19:11:37 11° 65° (ENE) 19:12:50 437.485
NUDT-PHONESAT 26 May 19:15:19 19:18:57 58° 260° (W) 19:22:39 437.300
XW-2F 26 May 19:16:15 19:19:52 44° 261° (W) 19:23:32 145.980 - 146.000
CUTE-I 26 May 19:17:05 19:22:19 64° 259° (WSW) 19:27:36 437.470
XW-2C 26 May 19:17:20 19:20:54 40° 261° (W) 19:24:33 145.795 - 145.815
KAITUO 1B 26 May 19:23:53 19:27:28 43° 261° (W) 19:31:06 145.475/437.950
DOVE 4 26 May 19:35:39 19:38:45 17° 265° (W) 19:41:45 437.250
HO-68 26 May 19:39:36 19:46:36 59° 70° (ENE) 19:53:38 435.675
STRAND 1 26 May 19:45:49 19:49:04 17° 93° (E) 19:52:19 437.568
XW-2A 26 May 19:46:02 19:49:06 35° 74° (ENE) 19:52:13 145.665 - 145.685
Tancredo 1 26 May 19:47:24 19:49:47 21° 131° (SE) 19:52:11 437.200
CUTE 1.7 + AOD 2 26 May 19:53:21 19:57:32 58° 75° (ENE) 20:01:46 437.475
PCSat 26 May 19:54:40 20:00:05 87° 113° (ESE) 20:05:32 145.827
LilacSat-2 26 May 19:57:29 19:59:18 13° 267° (W) 20:01:07 437.200
AAUSAT CUBESAT 2 26 May 20:07:43 20:11:03 23° 70° (ENE) 20:14:23 437.432
AO-73 26 May 20:08:19 20:09:22 11° 64° (ENE) 20:10:25 145.935
ISS 26 May 20:18:22 20:21:16 29° 132° (SE) 20:24:10 437.550
ZACube-1 26 May 20:20:27 20:23:12 17° 67° (ENE) 20:26:00 437.345
CUBEBUG 2 26 May 20:31:35 20:35:42 74° 77° (ENE) 20:39:55 437.445
UWE-3 26 May 20:41:51 20:45:55 55° 75° (ENE) 20:50:05 435.000/436.395/437.385
SEEDS 26 May 20:42:36 20:46:46 57° 260° (W) 20:50:58 437.485
Oscar 11 26 May 21:14:05 21:18:17 52° 74° (ENE) 21:22:31 .
M-CUBED/EXP-1 PRIME 26 May 21:14:28 21:16:07 13° 99° (E) 21:17:44 437.505
Tancredo 1 26 May 21:22:41 21:25:25 28° 326° (NW) 21:28:09 437.200
STRAND 1 26 May 21:23:30 21:28:28 50° 288° (WNW) 21:33:25 437.568
HO-68 26 May 21:29:12 21:34:39 23° 266° (W) 21:40:09 435.675
AO-73 26 May 21:40:54 21:45:01 58° 260° (W) 21:49:15 145.935
PCSat 26 May 21:41:27 21:44:11 14° 314° (NW) 21:46:56 145.827
AAUSAT CUBESAT 2 26 May 21:42:58 21:46:23 24° 264° (W) 21:49:48 437.432
ISS 26 May 21:54:56 21:57:45 25° 328° (NNW) 22:00:34 437.550
ZACube-1 26 May 21:55:21 21:59:10 34° 263° (W) 22:03:05 437.345
DELFI C3 26 May 22:00:19 22:04:07 44° 74° (ENE) 22:07:56 145.870
EO-88 26 May 22:02:36 22:05:50 31° 73° (ENE) 22:09:06 145.990 - 145.960
UNISAT 6 26 May 22:39:03 22:42:47 24° 95° (E) 22:46:31 437.425
PRISM 26 May 22:44:17 22:47:53 30° 98° (E) 22:51:28 437.425
FO-29 26 May 22:45:07 22:51:13 37° 98° (E) 22:57:52 435.910
LO-87 26 May 22:47:07 22:48:46 13° 68° (ENE) 22:50:24 145.935 - 145.965
M-CUBED/EXP-1 PRIME 26 May 22:47:56 22:50:36 24° 294° (WNW) 22:53:16 437.505
Oscar 11 26 May 22:53:16 22:54:41 11° 269° (W) 22:56:07 .
SO-50 26 May 23:07:00 23:11:36 81° 300° (WNW) 23:16:11 436.795
ESTCUBE 1 26 May 23:07:44 23:10:44 18° 67° (ENE) 23:13:43 437.505/2401.250
EO-88 26 May 23:37:45 23:39:35 13° 267° (W) 23:41:26 145.990 - 145.960
DELFI C3 26 May 23:37:52 23:39:06 11° 268° (W) 23:40:20 145.870
TIGRISAT 26 May 23:43:07 23:47:44 72° 285° (WNW) 23:52:23 435.000
SPROUT 26 May 23:56:24 23:58:30 14° 66° (ENE) 00:00:35 437.525
VELOX 1 27 May 00:02:51 00:05:44 17° 67° (ENE) 00:08:36 145.980
QB50P2 27 May 00:05:43 00:07:42 13° 93° (E) 00:09:39 145.880/145.840
AIST 2D 27 May 00:09:34 00:12:36 26° 96° (E) 00:15:36 435.315
UNISAT 6 27 May 00:15:25 00:19:25 30° 289° (WNW) 00:23:27 437.425
LO-87 27 May 00:18:42 00:21:53 31° 262° (W) 00:25:04 145.935 - 145.965
PRISM 27 May 00:20:10 00:22:55 18° 292° (WNW) 00:25:39 437.425
FO-29 27 May 00:30:12 00:36:08 38° 290° (WNW) 00:42:41 435.910
DX 1 27 May 00:38:14 00:40:37 15° 66° (ENE) 00:42:59 434.975-435.025
EO-79 27 May 00:41:12 00:45:01 31° 97° (E) 00:48:49 145.935-145.965
ESTCUBE 1 27 May 00:42:57 00:47:12 39° 262° (W) 00:51:28 437.505/2401.250
YUBILEINY 27 May 00:47:37 00:54:25 27° 83° (E) 01:01:16 435.215
SO-50 27 May 00:52:07 00:52:46 10° 318° (NW) 00:53:24 436.795
NANOSAT C BR1 27 May 01:25:57 01:30:13 81° 282° (WNW) 01:34:27 145.865
SPROUT 27 May 01:29:56 01:33:58 45° 261° (W) 01:38:03 437.525
50 SAT 27 May 01:30:10 01:33:38 85° 258° (WSW) 01:37:06 437.505
POLYITAN 1 27 May 01:30:46 01:35:01 63° 285° (WNW) 01:39:15 437.675
DUCHIFAT 1 27 May 01:36:33 01:40:46 68° 283° (WNW) 01:44:58 145.980
VELOX 1 27 May 01:37:44 01:41:51 38° 262° (W) 01:45:58 145.980
QB50P2 27 May 01:39:35 01:43:40 45° 286° (WNW) 01:47:44 145.880/145.840
AIST 2D 27 May 01:43:24 01:45:34 15° 291° (WNW) 01:47:43 435.315
RS-15 27 May 01:51:06 02:02:01 43° 107° (ESE) 02:13:13 29.354- 29.394
BUGSAT 1 27 May 01:53:36 01:57:40 52° 100° (E) 02:01:45 437.445
UKube-1 27 May 02:03:41 02:08:00 86° 260° (W) 02:12:20 .
DX 1 27 May 02:12:13 02:16:23 44° 260° (W) 02:20:33 434.975-435.025
Tancredo 1 27 May 02:14:49 02:16:12 12° 25° (NNE) 02:17:35 437.200
EO-79 27 May 02:17:31 02:20:32 19° 292° (WNW) 02:23:32 145.935-145.965
Gurwin Techsat 1B 27 May 02:36:51 02:41:28 30° 97° (E) 02:46:04 435.225
YUBILEINY 27 May 02:42:01 02:50:32 59° 281° (W) 02:59:11 435.215
ITUPSAT 1 27 May 02:47:47 02:51:30 23° 68° (ENE) 02:55:13 437.325
ISS 27 May 02:48:40 02:50:51 16° 27° (NNE) 02:53:02 437.550
Oscar 19 27 May 02:56:14 03:01:25 80° 104° (ESE) 03:06:32 437.125/150
MOZHAYETS 4 27 May 03:01:07 03:03:59 17° 66° (ENE) 03:06:51
JUGNU 27 May 03:17:54 03:19:34 11° 167° (SSE) 03:21:13 437.505
BEESAT 27 May 03:20:02 03:24:38 51° 73° (ENE) 03:29:15 436.000
BUGSAT 1 27 May 03:31:10 03:32:33 11° 294° (WNW) 03:33:56 437.445
Tancredo 1 27 May 03:49:17 03:52:21 88° 210° (SSW) 03:55:23 437.200
O/OREOS (USA 219) 27 May 03:49:21 03:53:09 26° 102° (ESE) 03:56:57 437.305
ITAMSAT 1 27 May 03:59:17 04:03:27 24° 96° (E) 04:07:36 435.822/435.867
RS-15 27 May 04:02:21 04:14:09 56° 308° (NW) 04:26:18 29.354- 29.394
AO-7 27 May 04:12:51 04:20:21 36° 99° (E) 04:27:49 .
Gurwin Techsat 1B 27 May 04:16:44 04:21:19 30° 291° (WNW) 04:25:53 435.225
ISS 27 May 04:24:22 04:27:37 60° 224° (SW) 04:30:49 437.550
ITUPSAT 1 27 May 04:24:51 04:29:06 32° 262° (W) 04:33:24 437.325
MOZHAYETS 4 27 May 04:36:22 04:40:45 43° 261° (W) 04:45:10
Oscar 19 27 May 04:38:25 04:39:59 11° 299° (WNW) 04:41:33 437.125/150
AO-85 27 May 04:45:12 04:49:17 47° 116° (ESE) 04:53:10 145.980
PCSat 27 May 04:45:22 04:50:27 39° 57° (ENE) 04:55:30 145.827
BEESAT 27 May 05:00:11 05:02:39 14° 267° (W) 05:05:09 436.000
JUGNU 27 May 05:04:20 05:07:46 16° 178° (S) 05:11:12 437.505
BEESAT 2 27 May 05:20:37 05:21:07 10° 107° (ESE) 05:21:38 435.950
CUBESAT XI-V 27 May 05:23:05 05:27:48 84° 259° (W) 05:32:32 437.345
KKS-1 27 May 05:26:07 05:30:32 87° 257° (WSW) 05:34:59 437.445
O/OREOS (USA 219) 27 May 05:28:35 05:32:27 26° 298° (WNW) 05:36:20 437.305
BEESAT 3 27 May 05:36:03 05:39:52 52° 116° (ESE) 05:43:46 437.485
ITAMSAT 1 27 May 05:38:12 05:42:56 36° 290° (WNW) 05:47:40 435.822/435.867
SRMSAT 27 May 05:47:06 05:48:15 11° 167° (SSE) 05:49:23 437.500
STARS 27 May 05:55:44 06:00:05 83° 77° (ENE) 06:04:27 437.465
DOVE 4 27 May 06:00:22 06:01:06 10° 92° (E) 06:01:49 437.250
AO-7 27 May 06:05:17 06:13:10 48° 295° (WNW) 06:21:01 .
RS-15 27 May 06:22:00 06:30:22 20° 337° (NNW) 06:38:48 29.354- 29.394
AO-85 27 May 06:27:27 06:29:51 15° 311° (NW) 06:32:12 145.980
PCSat 27 May 06:29:13 06:33:34 25° 253° (WSW) 06:37:54 145.827
XW-2D 27 May 06:32:15 06:34:01 13° 93° (E) 06:35:45 145.860 - 145.880
XW-2B 27 May 06:39:42 06:42:02 15° 93° (E) 06:44:20 145.730 - 145.750
NUDT-PHONESAT 27 May 06:49:22 06:51:38 15° 94° (E) 06:53:54 437.300
XW-2F 27 May 06:51:23 06:54:20 21° 95° (E) 06:57:16 145.980 - 146.000
XW-2C 27 May 06:52:43 06:55:50 23° 96° (E) 06:58:55 145.795 - 145.815
JUGNU 27 May 06:53:03 06:55:59 14° 188° (S) 06:58:56 437.505
BEESAT 2 27 May 06:54:27 06:58:20 54° 302° (WNW) 07:02:17 435.950
KAITUO 1B 27 May 06:58:07 07:01:00 20° 95° (E) 07:03:51 145.475/437.950
STRAND 1 27 May 06:59:19 07:02:51 19° 65° (ENE) 07:06:23 437.568
HO-68 27 May 07:14:32 07:16:03 11° 89° (E) 07:17:35 435.675
BEESAT 3 27 May 07:15:41 07:17:46 14° 313° (NW) 07:19:51 437.485
LilacSat-2 27 May 07:30:51 07:34:45 80° 103° (ESE) 07:38:35 437.200
SRMSAT 27 May 07:33:12 07:36:36 16° 177° (S) 07:40:02 437.500
DOVE 4 27 May 07:34:58 07:39:02 52° 285° (WNW) 07:43:13 437.250
CUTE-I 27 May 07:36:38 07:41:56 64° 102° (ESE) 07:47:14 437.470
SO-50 27 May 07:40:49 07:45:06 41° 55° (NE) 07:49:23 436.795
CUTE 1.7 + AOD 2 27 May 07:42:50 07:44:31 12° 91° (E) 07:46:11 437.475
M-CUBED/EXP-1 PRIME 27 May 07:57:23 08:00:01 16° 65° (ENE) 08:02:34 437.505
XW-2D 27 May 08:04:46 08:08:19 36° 286° (WNW) 08:11:50 145.860 - 145.880
XW-2B 27 May 08:12:51 08:16:15 30° 288° (WNW) 08:19:37 145.730 - 145.750
NUDT-PHONESAT 27 May 08:22:16 08:25:33 29° 288° (WNW) 08:28:49 437.300
CUBEBUG 2 27 May 08:25:12 08:28:38 20° 94° (E) 08:32:08 437.445
XW-2F 27 May 08:25:21 08:28:21 22° 289° (WNW) 08:31:21 145.980 - 146.000
NO-84 27 May 08:26:30 08:30:41 44° 128° (SE) 08:34:49 435.350 FM
XW-2C 27 May 08:26:59 08:29:52 20° 290° (WNW) 08:32:43 145.795 - 145.815
SEEDS 27 May 08:29:17 08:32:53 27° 96° (E) 08:36:27 437.485
KAITUO 1B 27 May 08:31:55 08:34:54 22° 289° (WNW) 08:37:50 145.475/437.950
UWE-3 27 May 08:34:55 08:37:38 15° 93° (E) 08:40:21 435.000/436.395/437.385
STRAND 1 27 May 08:36:48 08:41:38 45° 261° (W) 08:46:32 437.568
XW-2A 27 May 08:42:32 08:45:56 57° 101° (E) 08:49:20 145.665 - 145.685
RS-15 27 May 08:42:38 08:50:00 17° 15° (NNE) 08:57:13 29.354- 29.394
HO-68 27 May 08:57:28 09:04:43 79° 105° (ESE) 09:11:54 435.675
Oscar 11 27 May 09:05:59 09:07:35 12° 91° (E) 09:09:09 .
CUTE 1.7 + AOD 2 27 May 09:16:29 09:20:34 47° 286° (WNW) 09:24:38 437.475
CUTE-I 27 May 09:18:28 09:21:24 15° 297° (WNW) 09:24:20 437.470
SRMSAT 27 May 09:21:53 09:24:59 14° 187° (S) 09:28:05 437.500
SO-50 27 May 09:22:11 09:25:14 18° 250° (WSW) 09:28:16 436.795
AAUSAT CUBESAT 2 27 May 09:26:40 09:30:46 61° 101° (E) 09:34:49 437.432
M-CUBED/EXP-1 PRIME 27 May 09:30:12 09:34:13 37° 256° (WSW) 09:37:58 437.505
AO-73 27 May 09:31:17 09:35:24 32° 97° (E) 09:39:29 145.935
PRISM 27 May 09:31:49 09:34:24 16° 67° (ENE) 09:36:59 437.425
UNISAT 6 27 May 09:36:40 09:38:58 14° 66° (ENE) 09:41:18 437.425
ZACube-1 27 May 09:45:23 09:49:52 53° 100° (E) 09:54:21 437.345
CUBEBUG 2 27 May 10:01:06 10:05:15 34° 288° (WNW) 10:09:30 437.445
NO-84 27 May 10:04:43 10:08:25 26° 323° (NW) 10:12:02 435.350 FM
SEEDS 27 May 10:05:13 10:08:23 21° 291° (WNW) 10:11:31 437.485
UWE-3 27 May 10:09:50 10:14:13 45° 286° (WNW) 10:18:40 435.000/436.395/437.385
TIGRISAT 27 May 10:39:02 10:43:15 70° 76° (ENE) 10:47:34 435.000
Oscar 11 27 May 10:39:45 10:43:58 51° 286° (WNW) 10:48:09 .
FO-29 27 May 10:40:17 10:45:27 76° 75° (ENE) 10:50:44 435.910
HO-68 27 May 10:46:57 10:51:35 19° 302° (WNW) 10:56:14 435.675
RS-15 27 May 10:55:45 11:07:13 43° 47° (NE) 11:18:06 29.354- 29.394
PRISM 27 May 11:05:35 11:09:22 35° 261° (W) 11:13:10 437.425
EO-88 27 May 11:06:57 11:10:35 60° 100° (E) 11:14:12 145.990 - 145.960
AO-73 27 May 11:07:57 11:11:22 21° 291° (WNW) 11:14:48 145.935
UNISAT 6 27 May 11:11:13 11:15:16 43° 261° (W) 11:19:24 437.425
DELFI C3 27 May 11:14:16 11:18:12 74° 283° (WNW) 11:22:05 145.870
ZACube-1 27 May 11:23:21 11:25:39 14° 294° (WNW) 11:27:58 437.345
EO-79 27 May 11:31:53 11:34:37 17° 68° (ENE) 11:37:21 145.935-145.965
LO-87 27 May 11:48:16 11:51:03 21° 96° (E) 11:53:49 145.935 - 145.965
AIST 2D 27 May 12:13:34 12:17:01 63° 259° (W) 12:20:33 435.315
NANOSAT C BR1 27 May 12:15:07 12:19:08 50° 74° (ENE) 12:23:11 145.865
POLYITAN 1 27 May 12:20:17 12:24:25 65° 75° (ENE) 12:28:35 437.675
DUCHIFAT 1 27 May 12:25:19 12:29:23 59° 75° (ENE) 12:33:29 145.980
QB50P2 27 May 12:28:56 12:33:08 89° 260° (W) 12:37:22 145.880/145.840
ESTCUBE 1 27 May 12:37:40 12:42:03 51° 100° (E) 12:46:24 437.505/2401.250
BUGSAT 1 27 May 12:41:10 12:44:25 24° 70° (ENE) 12:47:40 437.445
YUBILEINY 27 May 12:55:11 13:03:57 63° 80° (E) 13:12:41 435.215
EO-79 27 May 13:06:17 13:10:04 33° 262° (W) 13:13:55 145.935-145.965
RS-15 27 May 13:08:24 13:20:04 58° 249° (WSW) 13:31:07 29.354- 29.394
SPROUT 27 May 13:18:02 13:21:57 34° 98° (E) 13:25:51 437.525
AO-85 27 May 13:18:55 13:21:55 19° 51° (NE) 13:25:00 145.980
LO-87 27 May 13:21:49 13:24:19 18° 290° (WNW) 13:26:50 145.935 - 145.965
VELOX 1 27 May 13:29:55 13:34:09 46° 100° (E) 13:38:20 145.980
NANOSAT C BR1 27 May 13:53:57 13:55:05 11° 268° (W) 13:56:15 145.865
UKube-1 27 May 13:54:09 13:57:11 19° 95° (E) 14:00:12 .
Gurwin Techsat 1B 27 May 13:55:17 14:00:06 37° 70° (ENE) 14:04:57 435.225
BEESAT 3 27 May 13:56:12 13:58:35 15° 48° (NE) 14:00:58 437.485
O/OREOS (USA 219) 27 May 14:01:28 14:05:32 32° 64° (ENE) 14:09:32 437.305
DX 1 27 May 14:02:51 14:06:50 35° 99° (E) 14:10:48 434.975-435.025
Oscar 19 27 May 14:10:13 14:15:25 88° 74° (ENE) 14:20:39 437.125/150
ESTCUBE 1 27 May 14:16:08 14:18:22 14° 295° (WNW) 14:20:36 437.505/2401.250
BUGSAT 1 27 May 14:16:40 14:19:42 21° 265° (W) 14:22:45 437.445
50 SAT 27 May 14:28:23 14:31:42 53° 285° (WNW) 14:34:59 437.505
YUBILEINY 27 May 14:53:18 14:59:59 25° 278° (W) 15:06:39 435.215
SPROUT 27 May 14:54:43 14:57:33 18° 292° (WNW) 15:00:25 437.525
AO-85 27 May 14:58:35 15:02:21 35° 245° (WSW) 15:06:19 145.980
NO-84 27 May 15:04:34 15:06:09 12° 26° (NNE) 15:07:41 435.350 FM
VELOX 1 27 May 15:07:51 15:10:11 14° 294° (WNW) 15:12:30 145.980
AO-7 27 May 15:09:04 15:16:34 40° 63° (ENE) 15:24:04 .
BEESAT 2 27 May 15:14:30 15:18:16 35° 55° (NE) 15:21:59 435.950
ITAMSAT 1 27 May 15:14:43 15:19:05 29° 68° (ENE) 15:23:28 435.822/435.867
BEESAT 27 May 15:23:57 15:26:52 16° 93° (E) 15:29:46 436.000
UKube-1 27 May 15:29:25 15:33:14 32° 289° (WNW) 15:37:03 .
BEESAT 3 27 May 15:32:34 15:36:24 45° 245° (WSW) 15:40:11 437.485
Gurwin Techsat 1B 27 May 15:35:52 15:40:05 24° 265° (W) 15:44:20 435.225
DX 1 27 May 15:39:51 15:42:43 18° 293° (WNW) 15:45:35 434.975-435.025
O/OREOS (USA 219) 27 May 15:41:24 15:44:40 20° 259° (W) 15:47:53 437.305
